Regional Weather Roundup
Issued by NWS Bismarck, ND

Home | Current Version | Previous Version | Text Only | Print | Product List | Glossary On
Versions: 1 2 3 4 5 6 7 8 9 10 11 12 13 14 15 16 17 18 19 20 21 22 23 24 25 26 27 28 29 30 31 32 33 34 35 36 37 38 39 40 41 42 43 44 45 46 47 48 49 50
000
ASUS43 KBIS 252010
RWRBIS

NWR BROADCAST TEXT
NATIONAL WEATHER SERVICE BISMARCK ND
300 PM CDT SAT APR 25 2015

NOTE: "FAIR" INDICATES FEW OR NO CLOUDS BELOW 12,000 FEET WITH NO
SIGNIFICANT WEATHER AND/OR OBSTRUCTIONS TO VISIBILITY.


CITY           SKY/WX    TMP DP  RH WIND       PRES   REMARKS
WILLISTON      CLOUDY    51  42  71 SE16      29.75S
MINOT          CLOUDY    56  39  53 E16       29.80S
MINOT AFB      CLOUDY    56  43  61 SE17      29.79S
BISMARCK       CLOUDY    49  42  77 SE16      29.82S
DICKINSON      CLOUDY    48  42  80 SE18      29.74R
GARRISON         N/A     56  41  57 SE16      29.79S
HETTINGER ARPT CLOUDY    45  43  93 E15       29.76R FOG
JAMESTOWN      CLOUDY    47  39  74 SE14      29.86R
BEACH          CLOUDY    48  48 100 SE20G25   29.72S
CARRINGTON     CLOUDY    50  45  81 SE18      29.86S
CROSBY         CLOUDY    48  43  81 SE20G26   29.79R
HARVEY           N/A    N/A N/A N/A MISG        N/A
HAZEN          CLOUDY    52  41  66 SE13      29.80S
LINTON         CLOUDY    48  46  93 SE12      29.82R
MANDAN         CLOUDY    48  41  76 SE13      29.82S
OAKES            N/A     45  45 100 E13       29.86S
STANLEY        CLOUDY    52  46  82 SE17      29.79S
WATFORD CITY   CLOUDY    52  43  71 SE16      29.73S
$$

CITY           SKY/WX    TMP DP  RH WIND       PRES   REMARKS
GRAND FORKS    MOSUNNY   62  38  40 S14       29.87F
GRAND FORKS AF PTSUNNY   60  38  43 S8G21     29.88S
DEVILS LAKE    CLOUDY    52  37  58 SE20      29.86S
FARGO          CLOUDY    56  39  53 SE9       29.88S
CANDO          CLOUDY    54  37  54 SE16G22   29.87R
CAVALIER       FAIR      59  37  44 S10G23    29.88S
GRAFTON        FAIR      63  37  39 SE12G21   29.88F
GWINNER        CLOUDY    46  45  93 E12       29.88R
LANGDON        CLOUDY    61  37  41 SE20G28   29.87S
ROLLA          CLOUDY    54  37  54 SE16      29.87R
WALHALLA       FAIR      59  37  44 SE18G24   29.88F
$$

CITY           SKY/WX    TMP DP  RH WIND       PRES   REMARKS
ABERDEEN       CLOUDY    47  43  86 E13       29.84R FOG
MOBRIDGE       CLOUDY    52  44  74 SE10      29.77R
BUFFALO          N/A     49  44  83 SE18      29.66S
RAPID CITY     CLOUDY    51  46  83 SE13      29.70F
GLASGOW        RAIN      43  41  93 NW10      29.73R FOG
SIDNEY         PTSUNNY   57  43  58 E17       29.72R
WOLF POINT     PTSUNNY   58  42  55 W17G26    29.68R
GLENDIVE       PTSUNNY   61  45  55 E18       29.67R
MILES CITY     RAIN      42  39  89 NW20G26   29.75R
BAKER          CLOUDY    51  44  77 SE18      29.70R
$$

CITY           SKY/WX    TMP DP  RH WIND       PRES   REMARKS
BILLINGS       CLOUDY    43  36  76 NE3       29.82R
GREAT FALLS    CLOUDY    50  27  40 N7        29.80S
REGINA         CLOUDY    46  43  87 E20G29    29.77F
ESTEVAN        CLOUDY    48  41  76 SE16G22   29.80S
$$




USA.gov is the U.S. government's official web portal to all federal, state and local government web resources and services.